This is the latest recevied weather packets stored in our database for station/object K0QJ. If no packets are shown the sender has not sent any weather packets the latest 10 day(s).
| Time | Temp. | Humidity | Pressure | Rain* | Wind** | Luminosity | Snow |
|---|---|---|---|---|---|---|---|
| 1777665814 | 18.89° C | 35% | 1016.2 hPa | 0 mm | - | 806 W/m² | - |
| 1777665512 | 18.33° C | 36% | 1016.4 hPa | 0 mm | - | 777 W/m² | - |
| 1777665207 | 18.33° C | 36% | 1016.4 hPa | 0 mm | - | 233 W/m² | - |
| 1777664904 | 17.78° C | 37% | 1016.5 hPa | 0 mm | - | 178 W/m² | - |
| 1777664600 | 17.78° C | 38% | 1016.7 hPa | 0 mm | - | 184 W/m² | - |
| 1777664296 | 18.33° C | 37% | 1016.8 hPa | 0 mm | - | 157 W/m² | - |
| 1777663995 | 18.33° C | 37% | 1016.7 hPa | 0 mm | - | 247 W/m² | - |
| 1777663692 | 18.33° C | 36% | 1016.8 hPa | 0 mm | - | 330 W/m² | - |
| 1777663389 | 18.89° C | 38% | 1016.9 hPa | 0 mm | - | 662 W/m² | - |
| 1777663086 | 17.22° C | 37% | 1016.7 hPa | 0 mm | - | 717 W/m² | - |
| 1777662783 | 17.22° C | 37% | 1017 hPa | 0 mm | - | 137 W/m² | - |
| 1777662480 | 17.78° C | 37% | 1016.8 hPa | 0 mm | - | 142 W/m² | - |
| 1777662175 | 17.78° C | 38% | 1016.9 hPa | 0 mm | - | 190 W/m² | - |
| 1777661871 | 18.89° C | 36% | 1016.9 hPa | 0 mm | - | 164 W/m² | - |
| 1777661567 | 18.33° C | 37% | 1017.1 hPa | 0 mm | - | 818 W/m² | - |
| 1777661263 | 18.89° C | 36% | 1017.1 hPa | 0 mm | - | 207 W/m² | - |
| 1777660959 | 18.89° C | 37% | 1017.1 hPa | 0 mm | - | 844 W/m² | - |
| 1777660655 | 18.33° C | 36% | 1017.1 hPa | 0 mm | - | 495 W/m² | - |
| 1777660352 | 18.89° C | 37% | 1017.1 hPa | 0 mm | - | 275 W/m² | - |
| 1777660048 | 18.89° C | 36% | 1017 hPa | 0 mm | - | 888 W/m² | - |
| 1777659746 | 18.89° C | 37% | 1017 hPa | 0 mm | - | 822 W/m² | - |
| 1777659442 | 18.33° C | 37% | 1017.3 hPa | 0 mm | - | 783 W/m² | - |
| 1777659140 | 17.78° C | 37% | 1017.2 hPa | 0 mm | - | 772 W/m² | - |
| 1777658838 | 18.89° C | 35% | 1017.3 hPa | 0 mm | - | 775 W/m² | - |
| 1777658533 | 17.78° C | 36% | 1017.4 hPa | 0 mm | - | 810 W/m² | - |
* Rain latest hour (hover to see other rain measurements)
** Current wind speed in m/s (hover to see current wind gust speed)